Location: Harbor View
(36.2448°N, 86.5797°W)
Time: 08:47:28
(UTC+00:00)

COSMO-SKYMED 1 - Pass Details

Date: 01 March 2021
Orbit: 621 x 623 km, 97.9° (Epoch: 13 April)

Event Time Altitude Azimuth Distance (km) Brightness Sun altitude
Rises 00:57:18 0° 351° (N) 2,910 6.2 -16.3°
Reaches altitude 10° 01:00:16 10° 329° (NNW) 1,998 5.6 -16.9°
Maximum altitude 01:02:49 16° 293° (WNW) 1,659 5.7 -17.4°
Drops below altitude 10° 01:05:21 10° 257° (WSW) 1,989 6.3 -17.9°
Sets 01:08:18 0° 235° (SW) 2,890 6.8 -18.5°
